Weather History for Holdrege, NE

Change the Weather History Date:

Sunday, March 11, 2012

  Actual Average Record
Temperature  
Mean Temperature 45 °F -  
Max Temperature 47 °F 54 °F 85 °F (1972)
Min Temperature 43 °F 27 °F -9 °F (1998)
Degree Days  
Heating Degree Days 20    
Moisture  
Dew Point 39 °F    
Average Humidity 80    
Maximum Humidity 95    
Minimum Humidity 55    
Precipitation  
Precipitation 0.24 in - - ()
Sea Level Pressure  
Sea Level Pressure 29.84 in    
Wind  
Wind Speed 12 mph (South)    
Max Wind Speed 18 mph    
Max Gust Speed 23 mph    
Visibility 9 miles    
Events Rain    
Averages and records for this station are not official NWS values.
T = Trace of Precipitation, MM = Missing Value Source: NWS Daily Summary

Daily Weather History Graph

Daily Weather History Graph

Search for Another Location

Airport:

Trip Planner

Search our weather history database for the weather conditions in past years. The results will help you decide how hot, cold, wet, or windy it might be!

Date:

Astronomy

Mar. 11, 2012 Rise Set
Actual Time 7:54 AM CDT 7:40 PM CDT
Civil Twilight 7:27 AM CDT 8:07 PM CDT
Nautical Twilight 6:55 AM CDT 8:39 PM CDT
Astronomical Twilight 6:23 AM CDT 9:11 PM CDT
Moon No Moon Rise 9:30 AM CDT (3/11)
Length of Visible Light 12h 40m
Length of Day
11h 45m
Waning Gibbous, 85% of the Moon is Illuminated
Mar 11
Waning Gibbous
Mar 14
Last Quarter
Mar 22
New
Mar 30
First Quarter
Apr 6
Full

Hourly Weather History & Observations

Time (CDT) Temp. Windchill Dew Point Humidity Pressure Visibility Wind Dir Wind Speed Gust Speed Precip Events Conditions
12:15 AM 45.5 °F 39.6 °F 30.0 °F 55% 29.99 in 10.0 mi South 12.7 mph - N/A   Clear
12:35 AM 44.6 °F 39.2 °F 29.8 °F 56% 29.98 in 10.0 mi South 10.4 mph - N/A   Clear
12:55 AM 45.3 °F 40.6 °F 30.2 °F 56% 29.98 in 10.0 mi South 9.2 mph - N/A   Clear
1:15 AM 43.9 °F 39.9 °F 30.0 °F 58% 29.97 in 10.0 mi South 6.9 mph - N/A   Clear
1:35 AM 43.9 °F 38.8 °F 30.4 °F 59% 29.97 in 10.0 mi South 9.2 mph - N/A   Scattered Clouds
1:55 AM 46.4 °F 40.1 °F 31.1 °F 55% 29.97 in 10.0 mi South 15.0 mph - N/A   Overcast
3:15 AM 46.9 °F - 31.3 °F 55% 29.97 in 10.0 mi South 12.7 mph - N/A   Overcast
3:35 AM 47.3 °F - 32.2 °F 56% 29.97 in 10.0 mi South 13.8 mph 19.6 mph N/A   Overcast
3:55 AM 47.7 °F - 36.1 °F 64% 29.96 in 10.0 mi South 17.3 mph - N/A   Overcast
4:15 AM 47.3 °F - 35.4 °F 63% 29.96 in 10.0 mi South 12.7 mph - N/A   Overcast
4:35 AM 47.3 °F - 35.1 °F 62% 29.94 in 10.0 mi South 13.8 mph 20.7 mph N/A   Overcast
4:55 AM 46.9 °F - 33.4 °F 59% 29.93 in 10.0 mi South 16.1 mph - N/A   Overcast
5:15 AM 46.9 °F - 35.4 °F 64% 29.93 in 10.0 mi South 17.3 mph - N/A   Overcast
5:35 AM 46.4 °F 40.4 °F 36.5 °F 68% 29.92 in 10.0 mi South 13.8 mph - N/A   Mostly Cloudy
5:55 AM 45.7 °F 40.2 °F 36.5 °F 70% 29.90 in 10.0 mi South 11.5 mph 17.3 mph N/A   Mostly Cloudy
6:15 AM 45.9 °F 41.2 °F 36.5 °F 70% 29.91 in 10.0 mi South 9.2 mph - N/A   Overcast
6:55 AM 46.0 °F 41.0 °F 36.0 °F 68% 29.90 in 10.0 mi South 10.4 mph - N/A   Overcast
7:15 AM 45.5 °F 40.8 °F 36.5 °F 71% 29.91 in 10.0 mi South 9.2 mph - N/A   Overcast
7:55 AM 45.7 °F 39.1 °F 36.1 °F 69% 29.90 in 10.0 mi South 15.0 mph 23.0 mph N/A   Overcast
8:15 AM 45.5 °F 38.6 °F 36.5 °F 71% 29.90 in 10.0 mi South 16.1 mph 21.9 mph N/A   Overcast
8:35 AM 45.5 °F 38.1 °F 37.6 °F 74% 29.91 in 10.0 mi South 18.4 mph 23.0 mph N/A   Overcast
8:55 AM 45.5 °F 39.6 °F 37.6 °F 74% 29.91 in 10.0 mi South 12.7 mph - N/A   Overcast
9:15 AM 45.5 °F 39.9 °F 37.8 °F 74% 29.90 in 10.0 mi South 11.5 mph 19.6 mph N/A   Overcast
9:35 AM 45.5 °F 39.2 °F 37.8 °F 74% 29.90 in 10.0 mi South 13.8 mph - N/A   Overcast
9:55 AM 45.5 °F 38.9 °F 39.2 °F 79% 29.90 in 10.0 mi South 15.0 mph 21.9 mph N/A   Overcast
10:15 AM 45.0 °F 38.9 °F 39.2 °F 80% 29.89 in 10.0 mi South 12.7 mph - N/A   Overcast
10:35 AM 44.6 °F 38.4 °F 40.3 °F 85% 29.89 in 10.0 mi SSE 12.7 mph 17.3 mph N/A   Overcast
10:55 AM 44.1 °F 39.0 °F 40.5 °F 87% 29.88 in 10.0 mi SSE 9.2 mph 16.1 mph N/A   Overcast
11:15 AM 43.7 °F 36.6 °F 41.0 °F 90% 29.88 in 4.0 mi SSE 15.0 mph - N/A   Overcast
11:35 AM 44.1 °F 37.7 °F 41.2 °F 90% 29.89 in 10.0 mi South 12.7 mph - N/A   Overcast
11:55 AM 43.7 °F 38.1 °F 41.4 °F 91% 29.86 in 2.5 mi South 10.4 mph - N/A   Overcast
12:15 PM 44.1 °F 38.1 °F 42.1 °F 93% 29.86 in 2.5 mi SSE 11.5 mph - N/A   Overcast
12:35 PM 43.9 °F 37.9 °F 41.9 °F 93% 29.85 in 5.0 mi SSE 11.5 mph - N/A   Overcast
12:55 PM 44.4 °F 39.5 °F 41.9 °F 91% 29.84 in 7.0 mi SSE 9.2 mph - N/A   Overcast
1:15 PM 44.6 °F 39.7 °F 41.9 °F 90% 29.83 in 10.0 mi SSE 9.2 mph - N/A   Drizzle
1:35 PM 45.1 °F 41.4 °F 42.4 °F 90% 29.79 in 10.0 mi SE 6.9 mph - N/A   Drizzle
1:55 PM 45.5 °F 40.8 °F 42.6 °F 90% 29.79 in 10.0 mi SSE 9.2 mph - N/A   Overcast
2:15 PM 45.0 °F 39.7 °F 42.3 °F 90% 29.79 in 10.0 mi SSE 10.4 mph - N/A Rain Rain
2:35 PM 44.6 °F 38.1 °F 42.3 °F 91% 29.78 in 7.0 mi SSE 13.8 mph - 0.01 in Rain Light Rain
2:55 PM 44.2 °F 38.4 °F 42.3 °F 93% 29.78 in 4.0 mi South 11.5 mph 19.6 mph 0.07 in Rain Rain
3:15 PM 44.4 °F 38.6 °F 42.6 °F 93% 29.77 in 7.0 mi South 11.5 mph - 0.04 in Rain Rain
3:35 PM 44.6 °F 38.4 °F 42.6 °F 93% 29.76 in 7.0 mi South 12.7 mph - 0.08 in Rain Rain
3:55 PM 44.6 °F 38.8 °F 42.4 °F 92% 29.75 in 7.0 mi South 11.5 mph - 0.10 in Rain Light Rain
4:35 PM 44.6 °F 39.7 °F 42.3 °F 91% 29.74 in 10.0 mi South 9.2 mph - 0.04 in Rain Light Rain
4:55 PM 44.6 °F 39.2 °F 42.3 °F 91% 29.73 in 10.0 mi SSW 10.4 mph - 0.05 in Rain Rain
5:15 PM 44.6 °F 39.7 °F 42.6 °F 93% 29.73 in 10.0 mi South 9.2 mph - 0.01 in Rain Light Rain
5:35 PM 44.6 °F 40.2 °F 42.4 °F 92% 29.72 in 10.0 mi South 8.1 mph - 0.02 in Rain Light Rain
5:55 PM 44.6 °F 40.2 °F 42.6 °F 93% 29.72 in 10.0 mi South 8.1 mph - 0.02 in   Overcast
6:15 PM 44.6 °F 39.2 °F 42.8 °F 93% 29.72 in 10.0 mi South 10.4 mph - N/A Rain Light Rain
6:35 PM 45.0 °F 40.1 °F 43.0 °F 93% 29.71 in 10.0 mi South 9.2 mph - N/A   Overcast
6:55 PM 45.1 °F 40.3 °F 42.8 °F 91% 29.70 in 10.0 mi South 9.2 mph - N/A   Overcast
7:15 PM 44.6 °F 39.2 °F 42.8 °F 93% 29.70 in 10.0 mi SSE 10.4 mph - N/A   Overcast
7:35 PM 44.6 °F 40.7 °F 42.4 °F 92% 29.70 in 10.0 mi SSE 6.9 mph - N/A   Overcast
7:55 PM 44.6 °F 41.4 °F 42.4 °F 92% 29.70 in 10.0 mi South 5.8 mph - N/A   Overcast
8:15 PM 44.6 °F 41.4 °F 42.4 °F 92% 29.70 in 10.0 mi SSE 5.8 mph - N/A   Overcast
8:35 PM 44.1 °F 40.1 °F 42.4 °F 94% 29.70 in 10.0 mi SSE 6.9 mph - N/A   Overcast
8:55 PM 44.1 °F 40.8 °F 42.4 °F 94% 29.70 in 10.0 mi SSE 5.8 mph - N/A   Overcast
9:15 PM 43.7 °F 39.7 °F 42.3 °F 95% 29.70 in 10.0 mi SSE 6.9 mph - N/A   Overcast
9:35 PM 43.7 °F 38.1 °F 42.3 °F 95% 29.70 in 10.0 mi South 10.4 mph - N/A   Overcast
9:55 PM 43.3 °F 38.6 °F 41.9 °F 95% 29.69 in 10.0 mi South 8.1 mph - N/A   Overcast
10:15 PM 43.2 °F 37.9 °F 41.9 °F 95% 29.69 in 7.0 mi South 9.2 mph - N/A   Overcast
10:35 PM 43.2 °F 37.4 °F 41.9 °F 95% 29.69 in 4.0 mi South 10.4 mph - N/A   Overcast
10:55 PM 43.3 °F 37.7 °F 42.1 °F 95% 29.68 in 4.0 mi South 10.4 mph - N/A   Overcast
11:15 PM 42.8 °F 37.0 °F 41.5 °F 95% 29.68 in 5.0 mi South 10.4 mph - N/A   Overcast
11:35 PM 41.9 °F 37.5 °F 40.6 °F 95% 29.67 in 7.0 mi South 6.9 mph - N/A   Mostly Cloudy
11:55 PM 41.4 °F 36.2 °F 40.1 °F 95% 29.67 in 10.0 mi South 8.1 mph - N/A   Clear
12:15 AM 41.0 °F 37.1 °F 39.7 °F 95% 29.67 in 10.0 mi South 5.8 mph - N/A   Clear
12:35 AM 39.9 °F 35.1 °F 38.3 °F 94% 29.66 in 7.0 mi South 6.9 mph - N/A   Clear
12:55 AM 39.6 °F 34.7 °F 38.1 °F 95% 29.66 in 5.0 mi South 6.9 mph - N/A   Mostly Cloudy